FW8888 Weather Reports


Display with metric or nautical units.
time (UTC)temp
F
wind
direction
speed
MPH
gust
MPH
rain 1hr
in
rain 24hr
in
rain mn
in
humidity
%
barometer
mb
20260508020050 54 0 0.0 0.0 0.00 0.34 0.34 96 1012.8
20260508014557 54 0 0.0 0.0 0.00 0.34 0.34 96 1012.5
20260508013056 54 0 0.0 0.0 0.00 0.34 0.34 95 1011.9
20260508011553 54 0 0.0 0.0 0.00 0.34 0.34 95 1012.0
20260508010056 54 0 0.0 0.0 0.00 0.34 0.34 95 1011.9
20260508004548 54 0 0.0 0.0 0.00 0.34 0.34 95 1011.5
20260508003056 54 0 0.0 0.0 0.00 0.34 0.34 96 1011.3
20260508001617 54 0 0.0 0.0 0.00 0.34 0.34 96 1011.5
20260508000054 54 0 0.0 1.0 0.00 0.34 0.34 95 1011.3
20260507234551 55 0 0.0 1.0 0.00 0.34 0.34 95 1011.0
20260507233053 55 0 0.0 0.0 0.00 0.34 0.34 95 1010.7
20260507231549 55 0 0.0 1.0 0.00 0.34 0.34 95 1010.5
20260507230052 55 0 0.0 2.0 0.00 0.34 0.34 95 1010.6
20260507224558 55 0 0.0 0.0 0.00 0.34 0.34 95 1010.4
20260507223055 55 0 0.0 2.0 0.00 0.34 0.34 96 1010.3
20260507221552 55 0 0.0 1.0 0.00 0.34 0.34 96 1010.5
20260507220052 55 0 0.0 1.0 0.00 0.34 0.34 96 1010.8
20260507214554 55 0 0.0 1.0 0.00 0.34 0.34 96 1010.4
20260507213051 55 0 0.0 0.0 0.00 0.34 0.34 96 1010.4
20260507211550 55 0 0.0 2.0 0.00 0.34 0.34 96 1010.2
20260507210051 55 263 0.0 1.0 0.02 0.34 0.34 97 1010.2
20260507204553 54 0 1.0 3.0 0.03 0.34 0.34 96 1009.9
20260507203051 54 259 0.0 3.0 0.03 0.34 0.34 97 1009.9
20260507201558 55 309 0.0 4.0 0.04 0.34 0.34 96 1009.9
20260507200056 56 0 0.0 6.0 0.02 0.32 0.32 97 1009.8
20260507194551 56 330 2.0 6.0 0.02 0.34 0.31 97 1009.5
20260507193052 56 0 0.0 4.0 0.02 0.34 0.31 97 1009.8
20260507191556 56 317 2.0 7.0 0.02 0.33 0.30 96 1009.9
20260507190057 56 0 1.0 6.0 0.02 0.33 0.30 96 1009.7
20260507184555 57 262 0.0 3.0 0.02 0.36 0.29 97 1009.5
20260507183051 58 0 0.0 3.0 0.02 0.36 0.29 97 1009.5
20260507181601 58 242 1.0 5.0 0.01 0.35 0.28 97 1009.1
20260507180053 58 0 0.0 2.0 0.01 0.35 0.28 96 1009.2
20260507174557 59 264 1.0 7.0 0.01 0.34 0.27 96 1010.1
20260507173055 61 0 1.0 4.0 0.02 0.34 0.27 95 1009.3
20260507171553 63 307 2.0 8.0 0.02 0.34 0.27 93 1008.7
20260507170053 68 0 0.0 1.0 0.03 0.34 0.27 97 1008.1
20260507164553 67 0 0.0 2.0 0.02 0.33 0.26 97 1008.6
20260507163053 69 326 0.0 3.0 0.01 0.32 0.25 97 1009.4
20260507161550 69 0 0.0 2.0 0.01 0.32 0.25 98 1009.4
20260507160053 68 0 0.0 2.0 0.01 0.31 0.24 98 1009.6
20260507154549 68 0 0.0 2.0 0.02 0.31 0.24 98 1009.6
20260507153058 68 0 0.0 1.0 0.05 0.31 0.24 98 1009.3
20260507151550 68 214 0.0 1.0 0.08 0.31 0.24 99 1009.5
20260507150049 67 0 0.0 1.0 0.07 0.30 0.23 98 1009.6
20260507144548 67 231 0.0 1.0 0.06 0.28 0.21 98 1009.8
20260507143048 67 0 0.0 2.0 0.04 0.26 0.19 98 1009.8
20260507141554 67 0 0.0 2.0 0.01 0.23 0.16 98 1009.6
20260507140053 67 218 0.0 2.0 0.01 0.23 0.16 98 1009.9
20260507134554 67 201 0.0 2.0 0.01 0.22 0.15 98 1010.2
20260507133057 67 0 0.0 1.0 0.01 0.22 0.15 98 1010.1
20260507131600 67 0 0.0 1.0 0.01 0.22 0.15 99 1010.1
20260507130107 66 0 0.0 1.0 0.01 0.22 0.15 98 1010.2
20260507124555 66 0 0.0 1.0 0.00 0.21 0.14 99 1010.2
20260507123054 66 0 0.0 1.0 0.01 0.21 0.14 98 1010.4
20260507121605 66 0 0.0 0.0 0.02 0.21 0.14 98 1010.2
20260507114609 66 221 0.0 1.0 0.02 0.21 0.14 99 1010.6
20260507113052 66 231 0.0 1.0 0.01 0.20 0.13 99 1010.6
20260507111604 66 0 0.0 1.0 0.01 0.19 0.12 99 1010.6
20260507110052 65 0 0.0 1.0 0.01 0.19 0.12 99 1010.4
20260507104552 65 219 0.0 1.0 0.01 0.19 0.12 99 1010.2
20260507103051 65 0 0.0 2.0 0.01 0.19 0.12 99 1010.3
20260507101603 65 0 0.0 1.0 0.00 0.18 0.11 98 1010.2
20260507100048 65 0 0.0 0.0 0.00 0.18 0.11 98 1010.2
20260507094551 65 0 0.0 1.0 0.00 0.18 0.11 98 1010.3
20260507093056 65 0 0.0 1.0 0.01 0.18 0.11 98 1010.3
20260507091556 65 0 0.0 0.0 0.01 0.18 0.11 98 1010.3
20260507090057 65 0 0.0 1.0 0.01 0.18 0.11 98 1010.4
20260507084556 65 0 0.0 1.0 0.01 0.18 0.11 98 1010.4
20260507083056 65 0 0.0 1.0 0.01 0.17 0.10 98 1010.9
20260507081555 65 0 0.0 1.0 0.01 0.17 0.10 98 1011.3
20260507080104 65 0 0.0 0.0 0.01 0.17 0.10 98 1010.7
20260507074600 65 0 0.0 1.0 0.01 0.17 0.10 98 1011.1
20260507073053 65 0 0.0 0.0 0.00 0.16 0.09 98 1011.3
20260507071550 65 0 0.0 0.0 0.00 0.16 0.09 97 1011.2
20260507070058 65 0 0.0 0.0 0.00 0.16 0.09 97 1011.0
20260507064554 65 0 0.0 0.0 0.00 0.16 0.09 97 1011.5
20260507063054 65 0 0.0 0.0 0.00 0.16 0.09 97 1012.0
20260507061554 65 0 0.0 0.0 0.03 0.16 0.09 97 1011.6
20260507060052 65 0 0.0 1.0 0.04 0.16 0.09 96 1012.2
20260507054636 65 0 0.0 1.0 0.06 0.16 0.09 96 1012.3
20260507053055 66 0 0.0 0.0 0.08 0.16 0.09 96 1011.4
20260507051552 66 238 1.0 4.0 0.06 0.13 0.06 95 1011.8
20260507050057 66 224 1.0 4.0 0.05 0.12 0.05 94 1011.9
20260507044650 68 0 0.0 2.0 0.03 0.10 0.03 92 1013.3
20260507043054 69 0 0.0 2.0 0.01 0.08 0.01 88 1013.5
20260507041602 70 0 0.0 3.0 0.00 0.07 0.00 87 1013.4
20260507040058 69 0 0.0 0.0 0.00 0.07 0.00 89 1012.9
20260507034556 70 0 0.0 0.0 0.00 0.07 0.07 85 1012.3
20260507033101 71 0 0.0 0.0 0.00 0.07 0.07 82 1012.3
20260507031604 71 0 0.0 1.0 0.00 0.07 0.07 81 1012.5
20260507030057 70 0 0.0 0.0 0.00 0.07 0.07 83 1012.3
20260507024556 70 0 0.0 1.0 0.00 0.07 0.07 84 1012.3
20260507023103 69 221 0.0 1.0 0.00 0.07 0.07 87 1012.1
20260507021554 67 0 0.0 0.0 0.00 0.07 0.07 95 1012.0